Tracking 25710 objects as of 6-Jul-2022
HD Live streaming from Space Station
objects crossing your sky now

DELTA 1 DEB

Track DELTA 1 DEB now!
10-day predictions


NORAD ID: 12211
Int'l Code: 1978-026BC
Perigee: 790.6 km
Apogee: 967.2 km
Inclination: 99.3 °
Period: 102.4 minutes
Semi major axis: 7249 km
RCS: 0.0111 m2 (small)
Launch date: March 5, 1978
Source: United States (US)
Launch site: AIR FORCE WESTERN TEST RANGE (AFWTR)

Note: This is SATELLITE DEBRIS
aabbcc
Your satellite tracking list
Your tracking list is empty




NASA's NSSDC Master Catalog

Two Line Element Set (TLE):
1 12211U 78026BC  22186.57688098 -.00000002  00000-0  25067-4 0  9997
2 12211  99.3089  47.0235 0121753 128.6358 232.5782 14.06385083116678
Source of the keplerian elements: AFSPC